Regional Weather Roundup
Issued by NWS Upton, NY

Current Version | Previous Version | Graphics & Text | Print | Product List | Glossary Off
Versions: 1 2 3 4 5 6 7 8 9 10 11 12 13 14 15 16 17 18 19 20 21 22 23 24 25 26 27 28 29 30 31 32 33 34 35 36 37 38 39 40 41 42 43 44 45 46 47 48 49 50

000
ASUS41 KOKX 301619
RWROKX

REGIONAL WEATHER ROUNDUP
NATIONAL WEATHER SERVICE NEW YORK NY
1200 PM EDT SAT MAY 30 2015

NOTE: "FAIR" INDICATES FEW OR NO CLOUDS BELOW 12,000 FEET WITH NO
SIGNIFICANT WEATHER AND/OR OBSTRUCTIONS TO VISIBILITY.

NYZ071-072-176-178-NJZ106-104-301700-
NEW YORK CITY METRO AREA


CITY           SKY/WX    TMP DP  RH WIND       PRES   REMARKS
CENTRAL PARK   PTSUNNY   80  65  59 MISG      30.19F
LAGUARDIA APRT MOSUNNY   81  64  56 S12G20    30.17F
KENNEDY INTL   MOSUNNY   74  63  68 S13       30.21F
NEWARK/LIBERTY MOSUNNY   82  65  56 SW14      30.18S
BRNX BOT. GARD   N/A     81  66  61 SE3       30.18F
TETERBORO      MOSUNNY   82  65  56 SW15      30.16F
$$

NYZ177-179-078>081-301700-
LONG ISLAND NEW YORK

CITY           SKY/WX    TMP DP  RH WIND       PRES   REMARKS
FARMINGDALE    SUNNY     74  65  73 S13       30.21F
ISLIP          PTSUNNY   76  65  68 SW13      30.19F
SHIRLEY        MOSUNNY   74  65  73 S15       30.22F
WESTHAMPTON    MOSUNNY   74  66  76 SW9       30.23F
MONTAUK POINT    N/A     70  64  81 S8        30.23F
$$

NYZ052-065-067-301700-
HUDSON VALLEY

CITY           SKY/WX    TMP DP  RH WIND       PRES   REMARKS
WHITE PLAINS   MOSUNNY   79  66  64 SE12      30.18F
NEWBURGH       MOSUNNY   81  68  65 S14       30.16F
MONTGOMERY     SUNNY     82  68  62 SW17      30.13F
POUGHKEEPSIE   PTSUNNY   82  65  56 S10       30.13F
ALBANY         PTSUNNY   83  65  54 S17       30.08F
$$

NJZ001-105-106-008-010-013-015-019>022-104-301700-
NEW JERSEY

CITY           SKY/WX    TMP DP  RH WIND       PRES   REMARKS
NEWARK/LIBERTY MOSUNNY   82  65  56 SW14      30.18S
TETERBORO      MOSUNNY   82  65  56 SW15      30.16F
CALDWELL       PTSUNNY   78  65  63 W9        30.18F
MORRISTOWN     PTSUNNY   81  70  69 SW9G17    30.18F
SOMERVILLE     MOSUNNY   81  68  64 VRB7      30.16F
SUSSEX         MOSUNNY   80  65  59 SW10      30.18S
ANDOVER          N/A     77  65  66 SW9       30.18F
TRENTON        MOSUNNY   81  66  60 SW12G17   30.18F
MILLVILLE      MOSUNNY   81  68  64 VRB7      30.20F
ATLANTIC CITY  SUNNY     80  67  64 S15       30.20F
WRIGHTSTOWN    PTSUNNY   83  67  57 SW13      30.15F
TOMS RIVER     MOSUNNY  N/A N/A N/A S14       30.18F
BELMAR         PTSUNNY   81  64  57 S9        30.19F
$$

PAZ047>061-062-071-301700-
EASTERN PENNSYLVANIA

CITY           SKY/WX    TMP DP  RH WIND       PRES   REMARKS
PHILADELPHIA   MOSUNNY   82  67  60 SW13      30.18F
ALLENTOWN      MOSUNNY   83  66  56 SE8       30.16F
SCRANTON       PTSUNNY   80  65  59 SW5       30.14F
$$

CTZ002-004>006-009-010-012-RIZ004-006-007-MAZ004-011-015-301700-
SOUTHERN NEW ENGLAND
 IN CT

CITY           SKY/WX    TMP DP  RH WIND       PRES   REMARKS
BRADLEY INTL   MOSUNNY   81  65  58 S12G21    30.14F
HARTFORD       SUNNY     80  64  58 S14       30.16F
DANBURY        MOSUNNY   79  63  57 SW9       30.18F
WTRBRY/OXFORD  MOSUNNY   79  63  57 SW12G23   30.20F
BRIDGEPORT     SUNNY     77  65  66 S13       30.19S
MERIDEN        SUNNY     81  63  54 S15G22    30.17F
NEW HAVEN      MOSUNNY   76  64  66 S8        30.19F
CHESTER        FAIR      75  64  69 SW12G20   30.21F
GROTON         SUNNY     70  63  78 S9        30.20F
WILLIMANTIC    MOSUNNY   79  63  57 S15G23    30.19F

 IN RI

CITY           SKY/WX    TMP DP  RH WIND       PRES   REMARKS
PROVIDENCE     MOSUNNY   81  62  52 SW17      30.19F
BLOCK ISLAND   CLOUDY    66  61  82 SW15G21   30.23F
WESTERLY       SUNNY     71  63  75 S8        30.22F

 IN MA

CITY           SKY/WX    TMP DP  RH WIND       PRES   REMARKS
BOSTON         MOSUNNY   83  63  50 SW20G25   30.14F
WORCESTER      MOSUNNY   78  62  57 S15G25    30.18F
WESTFIELD      SUNNY     82  64  54 S13G24    30.13F
PROVINCETOWN   SUNNY     73  63  68 S17G23    30.19F
NANTUCKET      FOG       64  60  87 S10       30.25S VSB 3/4
$$

ANZ330-335-338-340-345-350-353-355-301700-
COASTAL MARINE OBSERVATIONS


STATION/POSITION TIME  SKY/WX   TEMP    WIND        PRES    VSBY  WAVE
                                AIR SEA DIR/SP/G                  HT/PER
                 (UTC)          (F)     (DEG/KT/KT) (MB)    (MI)  (FT/S)
NY HARB ENTRANCE 1550            63 62  180/ 12/ 14 1022.3          3/ 9
4S FIRE IS       1503               60                N/A           2/ 9
20S FIRE ISLAND  1550            63 60  180/ 12/ 14 1023.1          3/ 9
GREAT SOUTH BAY  1500            65 70  230/ 10/ 12   N/A
23SW MTP         1550            60 58  210/  6/  8 1023.7          3/ 9
HUDSON CANYON    NOT AVBL
KINGS POINT      1500            71 56  190/ 11/ 12 1021.8
CENTRAL LI SOUND NOT AVBL
EASTERN LI SOUND 1500            59     100/  4/  4   N/A
ROBBINS REEF     1500            71     160/ 14/ 16 1021.2
$$


>>>>>>>>>>>>>>>>>>>>>>>>>>>> KEY <<<<<<<<<<<<<<<<<<<<<<<<<<<
>                                                          <
>     SKY/WX - SKY CONDITION/PRESENT WEATHER               <
>     TMP    - TEMPERATURE IN FAHRENHEIT                   <
>     DP     - DEWPOINT IN FAHRENHEIT                      <
>     RH     - RELATIVE HUMIDITY IN PERCENT                <
>     WIND   - DIRECTION AND SPEED IN MPH                  <
>     PRES   - MEAN SEA LEVEL PRESSURE IN INCHES OF HG     <
>     WCI    - WIND CHILL INDEX                            <
>     VSB    - VISIBILITY IN MILES                         <
>     HX     - HEAT INDEX                                  <
>     TC     - TEMPERATURE IN CELSIUS                      <
>     VRB    - VARIABLE WIND DIRECTION                     <
>                                                          <
>>>>>>>>>>>>>>>>>>>>>>>>>>>> KEY <<<<<<<<<<<<<<<<<<<<<<<<<<<




USA.gov is the U.S. government's official web portal to all federal, state and local government web resources and services.